SCP
0 0 0 0 0 0 0 0 0 0 0 0 0 0 0 0 0 0 0 0 0 0 0 0 0 0 0 0 0 0 0 0 0 0 0 0 0 0 0 0 0 0 0 0 0 0 0 0 0
0 0 0 0 0 0 0 0 0 0 0 0 0 0 0 0 0 0 0 0 0 0 0 0 0 0 0 0 0 0 0 0 0 0 0 0 0 0 0 0 0 0 0 0 0 0 0 0 0
0 0 0 0 0 0 0 0 0 0 0 0 0 0 0 0 0 0 0 0 0 0 0 0 0 0 0 0 0 0 0 0 0 0 0 0 0 0 0 0 0 0 0 0 0 0 0 0 0
0 0 0 0 0 0 0 0 0 0 0 0 0 0 0 0 0 0 0 0 0 0 0 0 0 0 0 0 0 0 0 0 0 0 0 0 0 0 0 0 0 0 0 0 0 0 0 0 0
0 0 0 0 0 0 0 0 0 0 0 0 0 0 0 0 0 0 0 0 0 0 0 0 0 0 0 0 0 0 0 0 0 0 0 0 0 0 0 0 0 0 0 0 0 0 0 0 0
0 0 0 0 0 0 0 0 0 0 0 0 0 0 0 0 0 0 0 0 0 0 0 0 0 0 0 0 0 0 0 0 0 0 0 0 0 0 0 0 0 0 0 0 0 0 0 0 0
0 0 0 0 0 0 0 0 0 0 0 0 0 0 0 0 0 0 0 0 0 0 0 0 0 0 0 0 0 0 0 0 0 0 0 0 0 0 0 0 0 0 0 0 0 0 0 0 0
0 0 0 0 0 0 0 0 0 0 0 0 0 0 0 0 0 0 0 0 0 0 0 0 0 0 0 0 0 0 0 0 0 0 0 0 0 0 0 0 0 0 0 0 0 0 0 0 0
0 0 0 0 0 0 0 0 0 0 0 0 0 0 0 0 0 0 0 0 0 0 0 0 0 0 0 0 0 0 0 0 0 0 0 0 0 0 0 0 0 0 0 0 0 0 0 0 0
0 0 0 0 0 0 0 0 0 0 0 0 0 0 0 0 0 0 0 0 0 0 0 0 0 0 0 0 0 0 0 0 0 0 0 0 0 0 0 0 0 0 0 0 0 0 0 0 0
0 0 0 0 0 0 0 0 0 0 0 0 0 0 0 0 0 0 0 0 0 0 0 0 0 0 0 0 0 0 0 0 0 0 0 0 0 0 0 0 0 0 0 0 0 0 0 0 0
0 0 0 0 0 0 0 0 0 0 0 0 0 0 0 0 0 0 0 0 0 0 0 0 0 0 0 0 0 0 0 0 0 0 0 0 0 0 0 0 0 0 -0 0 0 0 0 0 0
0 0 0 0 0 0 0 0 0 0 0 0 0 0 0 0 0 0 0 0 0 0 0 0 0 0 0 0 0 0 0 0 0 0 0 0 0 0 0 0 0 -0 -0 -0 0 0 0 0 0
0 0 0 0 0 0 0 0 0 0 0 0 0 0 0 0 0 0 0 0 0 0 0 0 0 0 0 0 0 0 0 0 0 0 0 0 0 0 0 0 0 0 -0 0 0 0 0 0 0
0 0 0 0 0 0 0 0 0 0 0 0 0 0 0 0 0 0 0 0 0 0 0 0 0 0 0 0 0 0 0 0 0 0 0 0 0 0 0 0 0 0 0 0 0 0 0 0 0
0 0 0 0 0 0 0 0 0 0 0 0 0 0 0 0 0 0 0 0 0 0 0 0 0 0 0 0 0 0 0 0 0 0 0 0 0 0 0 0 0 0 0 0 0 0 0 0 0
0 0 0 0 0 0 0 0 0 0 0 0 0 0 0 0 0 0 0 0 0 0 0 0 0 0 0 0 0 0 0 0 0 0 0 0 0 0 0 0 0 0 0 0 0 0 0 0 0
0 0 0 0 0 0 0 0 0 0 0 0 0 0 0 0 0 0 0 0 0 0 0 0 0 0 0 0 0 0 0 0 0 0 0 0 0 0 0 0 0 0 0 0 0 0 0 0 0
0 0 0 0 -0 -0 -0 0 0 0 0 0 0 0 0 0 0 0 0 0 0 0 0 0 0 0 0 0 0 0 0 0 0 0 0 0 0 0 0 0 0 0 0 0 0 0 0 0 0
0 0 0 0 0 0 0 0 0 0 0 0 0 0 0 0 0 0 0 0 0 0 0 0 0 0 0 0 0 0 0 0 0 0 0 0 0 0 0 0 0 0 0 0 0 0 0 0 0
0 0 0 0 0 0 0 0 0 0 0 0 0 0 0 0 0 0 0 0 0 0 0 0 0 0 0 0 0 0 0 0 0 0 0 0 0 0 0 0 0 0 0 0 0 0 0 0 0
0 0 0 0 0 0 0 0 0 0 0 0 0 0 0 0 0 0 0 0 0 0 0 0 0 0 0 0 0 0 0 0 0 0 0 0 0 0 0 0 0 0 0 0 0 0 0 0 0
0 0 0 0 0 0 0 0 0 0 0 0 0 0 0 0 0 0 0 0 0 0 0 0 0 0 0 0 0 0 0 0 0 0 0 0 0 0 0 0 0 0 0 0 0 0 0 0 0
0 0 0 0 0 0 0 0 0 0 0 0 0 0 0 0 0 0 0 0 0 0 0 0 0 0 0 0 0 0 0 0 0 0 0 0 0 0 0 0 0 0 0 0 0 0 0 0 0
0 0 0 0 0 0 0 0 0 0 0 0 0 0 0 0 0 0 0 0 0 0 0 0 0 0 0 0 0 0 0 0 0 0 0 0 0 0 0 0 0 0 0 0 0 0 0 0 0
0 0 0 0 0 0 0 0 0 0 0 0 0 0 0 0 0 0 0 0 0 0 0 0 0 0 0 0 0 0 0 0 0 0 0 0 0 0 0 0 0 0 0 0 0 0 0 0 0
0 0 0 0 0 0 0 0 0 0 0 0 0 0 0 0 0 0 0 0 0 0 0 0 0 0 0 0 0 0 0 0 0 0 0 0 0 0 0 0 0 0 0 0 0 0 0 0 0
0 0 0 0 0 0 0 0 0 0 0 0 0 0 0 0 0 0 0 0 0 0 0 0 0 0 0 0 0 0 0 0 0 0 0 0 0 0 0 0 0 0 0 0 0 0 0 0 0
0 0 0 0 0 0 0 0 0 0 0 0 0 0 0 0 0 0 0 0 0 0 0 0 0 0 0 0 0 0 0 0 0 0 0 0 0 0 0 0 0 0 0 0 0 0 0 0 0
0 0 0 0 0 0 0 0 0 0 0 0 0 0 0 0 0 0 0 0 0 0 0 0 0 0 0 0 0 0 0 0 0 0 0 0 0 0 0 0 0 0 0 0 0 0 0 0 0
Wind_Speed
4 2 3 4 6 5 1 3 2 2 2 1 2 6 8 7 6 3 1 8 8 9 9 13 17 16 15 14 14 13 12 11 11 11 10 10 10 10 11 11 12 12 12 12 13 13 13 13 13
1 1 4 6 5 1 4 4 4 4 4 4 3 4 4 2 1 3 4 7 9 10 8 9 17 16 16 15 14 13 12 11 11 10 10 10 10 10 10 11 11 11 12 12 12 12 12 12 13
1 3 5 5 3 5 5 4 5 2 3 3 3 1 3 3 3 5 5 9 9 9 8 10 17 17 16 15 14 13 12 12 11 10 10 10 10 10 10 10 10 10 11 11 11 11 11 11 11
3 5 5 4 3 5 5 4 4 3 2 2 4 2 1 0 4 5 7 11 11 9 7 10 18 17 16 15 14 14 12 12 11 11 10 10 10 10 9 9 9 10 10 10 10 10 10 10 10
4 5 3 1 4 4 4 3 3 4 4 2 4 4 2 1 2 7 11 12 12 9 7 9 17 17 16 15 15 14 13 12 11 11 10 10 9 9 9 9 8 8 9 9 9 9 9 9 9
5 5 3 3 4 4 3 3 4 3 2 3 5 5 3 1 4 8 11 10 10 10 8 8 17 16 16 16 15 14 14 12 12 11 10 10 9 9 8 8 7 7 8 8 8 8 8 8 8
5 4 4 3 3 3 3 4 5 4 4 5 7 6 3 2 4 8 9 8 8 8 7 6 8 11 15 16 15 15 14 13 12 11 10 9 9 8 8 7 6 6 6 6 6 6 6 6 7
5 5 3 3 3 4 2 3 3 6 5 3 7 7 5 4 8 9 8 7 7 7 7 6 6 7 7 9 14 14 13 13 12 11 9 8 7 7 6 5 5 5 4 4 4 5 6 6 6
4 4 4 5 6 4 2 2 1 2 3 2 3 4 1 10 13 12 8 7 8 8 6 6 6 6 6 7 10 11 12 12 11 8 9 7 3 3 3 3 3 3 2 2 3 4 5 6 7
4 4 7 5 5 3 2 3 3 2 1 2 2 1 5 11 15 15 14 15 15 14 11 7 7 7 7 6 6 5 5 6 5 5 5 4 3 2 2 1 1 1 2 3 3 5 6 5 3
5 7 5 4 4 3 2 2 2 5 4 7 7 6 8 10 12 14 15 15 16 14 12 10 9 8 8 5 5 3 3 4 5 6 6 4 3 2 1 1 1 2 2 2 3 4 3 2 2
4 5 4 4 3 3 3 3 3 6 8 6 6 7 10 13 16 17 16 15 12 12 14 11 11 9 8 6 5 5 4 4 4 5 6 4 3 2 1 1 0 0 1 1 1 1 2 2 2
5 4 4 4 4 3 3 4 4 6 7 2 2 6 11 15 15 14 12 10 10 14 14 13 12 12 9 7 6 6 5 5 5 5 5 6 4 3 2 1 1 1 1 1 0 1 1 2 2
6 5 4 4 4 3 4 5 3 8 4 2 4 7 11 14 15 10 9 11 13 15 15 14 14 13 11 9 7 7 6 5 5 5 6 7 5 4 3 3 2 2 1 1 1 1 0 1 1
2 2 4 4 4 4 3 7 8 8 3 4 6 7 9 11 11 12 14 14 15 14 14 15 15 14 13 11 10 7 6 6 6 6 7 7 6 5 4 3 3 2 2 2 1 1 1 1 1
2 2 4 5 4 4 5 11 9 5 5 7 7 7 7 9 10 12 12 11 11 11 13 15 13 15 15 12 10 7 7 7 6 6 6 8 7 7 5 4 3 3 2 2 2 1 1 1 1
2 5 6 5 4 4 6 9 8 3 5 8 8 7 8 8 9 10 10 11 11 13 13 15 15 16 16 13 9 8 7 8 6 6 6 7 8 8 6 5 4 4 3 2 2 1 1 0 1
7 6 5 7 3 5 7 10 9 4 5 7 8 7 7 9 12 10 10 10 10 11 12 14 14 14 13 10 7 6 6 7 6 7 7 8 7 8 6 4 5 4 3 3 2 2 1 1 0
6 6 6 6 4 5 8 11 12 8 5 7 8 8 8 10 10 7 7 8 8 10 12 14 15 13 12 10 10 10 10 8 7 7 8 9 8 9 7 5 5 5 4 4 4 2 2 0 1
6 6 6 4 2 4 6 10 10 8 8 8 9 9 9 8 7 5 5 6 9 11 12 13 15 14 15 12 10 7 7 5 6 5 7 8 9 9 8 8 6 6 4 4 4 3 2 1 1
9 10 8 5 1 1 3 9 7 7 6 6 7 8 8 9 9 7 5 6 7 9 12 12 14 14 14 12 7 5 4 3 4 6 7 8 9 9 8 9 7 6 6 5 5 5 5 3 1
12 8 7 5 2 4 2 7 9 6 7 8 9 8 9 8 8 7 5 6 7 9 9 10 11 12 12 12 12 13 10 9 10 7 6 7 8 9 8 8 8 7 6 6 5 5 4 4 2
6 5 6 5 4 4 3 5 10 3 8 10 10 10 10 9 8 7 6 6 6 6 7 8 9 10 11 12 14 13 10 8 5 4 7 7 7 8 8 8 8 7 6 6 6 5 5 4 4
6 5 4 2 2 8 9 7 10 7 10 8 8 8 9 7 6 6 5 4 4 4 5 6 8 9 10 12 12 13 12 9 8 7 8 7 5 5 7 8 7 7 6 7 6 6 6 5 4
7 7 3 3 5 9 6 8 13 9 9 10 9 9 8 6 5 5 5 4 4 5 6 7 9 9 10 11 12 12 12 11 12 10 9 8 6 6 8 8 7 7 6 6 6 6 6 6 5
12 11 9 8 7 4 4 11 11 8 7 7 8 7 5 6 5 5 5 5 5 6 6 7 9 9 9 11 11 10 10 8 7 8 8 9 8 8 8 8 8 7 7 6 6 5 5 5 5
11 10 6 4 2 3 7 8 11 6 6 7 7 6 7 7 6 6 4 4 5 5 6 8 9 8 9 10 9 8 9 8 8 7 7 6 5 5 7 8 7 7 7 7 6 5 5 5 5
9 10 6 7 7 6 6 6 7 6 8 8 8 9 9 6 5 5 4 4 4 4 5 6 7 8 7 8 8 7 8 8 7 7 7 7 6 6 7 7 7 7 6 6 6 5 5 5 5
8 9 7 6 5 7 6 9 9 11 10 10 11 9 8 7 6 5 4 3 3 3 4 5 6 6 6 7 7 7 7 7 7 7 7 7 6 7 8 8 8 7 7 7 6 6 6 6 5
8 10 10 10 7 6 4 10 5 8 6 6 7 6 5 5 4 4 4 3 3 4 4 5 5 6 6 7 7 7 7 7 7 7 7 7 7 7 8 8 7 7 7 7 7 7 6 6 6
Wind_Direction
340 42 79 58 54 51 231 241 217 212 212 195 149 152 159 166 169 197 165 146 140 148 164 166 159 155 150 145 140 135 128 123 119 114 109 104 100 95 91 86 83 80 77 75 74 72 71 70 69
348 80 57 60 87 106 259 240 213 212 180 133 106 119 141 191 186 139 146 169 149 151 158 161 161 157 154 150 145 140 135 130 125 119 114 110 105 100 96 91 86 83 79 77 75 74 73 71 69
113 58 81 77 126 187 224 220 206 203 165 155 125 140 171 177 176 183 188 160 145 150 154 163 162 160 157 153 148 144 141 137 131 125 120 115 109 104 99 94 88 85 83 80 78 76 74 73 70
83 50 58 83 216 223 225 223 186 144 173 172 138 126 252 190 182 182 150 150 145 150 154 166 164 162 159 157 154 149 146 142 138 132 126 121 115 108 102 97 93 89 87 83 80 78 75 74 73
62 78 69 356 252 250 242 226 181 171 176 171 144 150 206 16 109 136 145 152 152 153 157 169 167 166 163 162 158 154 152 149 144 139 133 126 119 113 108 104 98 92 88 83 80 78 75 71 69
63 73 105 231 259 275 258 180 162 181 175 164 150 155 212 105 138 152 151 154 155 155 158 169 172 169 168 166 162 159 157 155 151 146 140 133 128 124 119 112 104 96 91 85 81 76 71 67 64
114 116 174 209 254 276 244 162 173 178 190 201 168 153 252 185 166 149 144 142 148 154 158 171 172 171 171 168 166 164 163 161 158 153 147 140 136 134 128 120 112 100 92 85 77 69 61 57 55
131 122 170 209 218 250 237 170 187 173 203 175 149 160 223 192 141 130 124 134 149 161 167 172 169 165 166 168 169 168 168 166 163 157 147 142 141 136 131 123 121 112 100 86 71 56 49 45 42
103 103 198 210 201 234 217 183 195 169 140 166 201 199 220 131 135 135 138 155 170 179 181 176 170 165 160 162 171 168 170 169 163 155 147 131 109 100 112 120 132 124 105 77 56 45 42 41 33
119 174 217 212 199 209 201 195 184 131 153 213 226 120 109 140 154 162 171 179 186 190 189 182 175 169 163 167 163 160 161 160 149 141 139 126 125 122 111 108 111 78 48 37 34 37 39 40 24
167 195 218 231 221 211 201 214 184 156 214 217 209 190 151 163 171 180 185 188 192 190 188 187 182 174 169 166 158 156 151 148 146 148 145 139 133 122 96 69 17 20 32 33 24 29 27 27 18
184 220 210 227 215 208 211 203 204 195 220 222 207 167 167 177 186 191 193 194 188 188 193 189 184 180 177 169 166 161 159 158 159 161 155 148 149 156 158 171 200 33 37 40 32 31 19 21 16
208 227 223 235 236 230 224 226 225 239 244 247 155 159 183 192 200 203 200 190 186 193 194 191 187 186 181 174 174 172 174 173 170 165 166 163 165 176 180 195 203 210 172 144 101 53 26 20 14
210 217 238 241 237 227 219 251 228 250 243 227 197 198 201 202 205 201 196 194 195 199 197 192 191 189 184 184 183 181 180 174 171 175 177 174 174 178 181 191 198 200 184 167 154 150 61 20 13
172 202 267 248 224 224 194 268 237 241 223 239 236 228 221 219 212 208 205 203 200 199 195 193 193 190 189 190 188 184 182 177 181 184 181 181 180 181 181 185 192 193 171 153 135 118 83 41 11
131 177 241 253 206 204 174 252 254 233 208 240 245 242 237 233 223 222 216 211 202 194 192 194 193 192 194 193 189 187 184 183 187 184 183 187 187 183 179 182 193 180 157 149 145 130 99 23 360
170 201 223 261 214 182 191 245 258 222 207 242 252 248 241 246 241 231 221 213 203 196 192 191 193 193 195 193 189 187 184 189 189 184 188 190 188 184 179 184 185 167 156 158 156 123 133 45 331
195 197 209 223 228 181 217 247 266 257 220 245 254 256 249 244 242 233 223 216 206 197 192 192 193 193 189 186 180 181 188 194 190 191 194 188 186 183 178 178 176 164 159 162 156 146 116 116 327
175 181 210 226 213 191 229 250 261 263 247 254 258 254 252 249 250 241 225 211 200 194 192 192 192 189 181 184 186 190 198 197 196 198 194 190 185 182 179 177 173 172 176 178 165 147 135 85 50
187 203 225 258 215 204 253 263 260 251 239 235 242 247 247 254 265 251 230 207 199 199 197 195 194 188 187 191 189 190 184 188 193 192 192 190 187 183 183 180 180 177 171 167 166 154 143 124 95
210 209 214 224 309 271 305 290 267 259 242 245 241 241 243 239 247 249 230 212 202 202 199 197 195 191 190 182 166 147 134 135 171 193 196 193 188 186 184 183 178 178 175 180 181 171 162 167 161
223 209 198 202 204 262 211 278 274 254 266 253 248 244 244 243 240 240 230 214 207 208 199 196 191 188 184 175 176 177 184 191 196 190 189 184 187 186 184 181 180 179 180 180 182 176 169 158 175
201 168 180 191 199 259 231 248 274 254 254 251 245 241 241 239 235 237 231 219 205 195 189 187 181 183 181 181 185 187 194 196 175 162 173 181 185 187 185 182 180 181 182 181 176 172 177 174 170
144 106 91 88 153 245 223 214 268 226 222 236 238 237 239 240 234 233 231 205 189 176 174 173 174 181 181 183 186 191 192 181 167 174 182 184 182 186 188 183 183 183 183 183 182 180 180 183 176
157 142 158 194 213 239 196 208 248 235 221 219 226 234 238 236 228 223 213 199 188 179 176 174 176 183 183 184 189 193 192 185 185 185 186 182 181 190 195 187 187 186 187 183 175 177 183 182 183
186 175 181 192 206 244 193 226 248 244 241 236 235 237 241 236 227 224 218 205 195 187 179 176 181 184 183 186 192 191 188 187 191 187 184 188 193 195 187 187 186 184 179 177 174 177 185 184 191
173 196 178 147 164 218 239 263 291 259 254 242 236 232 235 233 225 223 216 204 195 188 186 183 182 182 185 188 187 186 187 188 188 184 182 186 186 180 176 180 181 180 177 176 172 182 188 183 191
173 158 153 173 177 222 255 244 239 233 231 233 227 226 232 230 226 221 213 206 197 188 180 175 179 183 183 183 185 186 188 189 182 176 183 183 180 172 169 175 178 177 177 176 174 181 182 183 195
161 174 170 171 187 183 233 253 220 210 210 215 222 222 221 219 219 216 210 198 182 169 167 172 176 175 177 181 182 181 183 181 176 180 185 183 176 172 174 178 179 181 183 180 181 186 180 189 196
175 179 172 184 206 194 208 261 245 220 227 222 232 234 227 220 214 203 192 178 174 178 176 177 177 179 182 178 176 179 176 172 176 183 182 179 178 178 178 175 178 183 184 182 186 190 187 191 198